[[{"header":{"parameterUnit":"m.s-1","parameterCategory":1,"la1":30.2991,"la2":30.254,"lo1":-89.0895,"lo2":-89.0444,"dy":0.0017,"dx":0.0017,"nx":28,"ny":28,"refTime":"2023-09-01T03:00:00:Z","depth":0,"parameterNumber":2,"parameterNumberName":"U-component_of_WINDS"},"data":[0,0,0,0,0,0,0,0,0,0,0,0,0,0,0,0,0,0,0,0,0,0,0,0,0,0,0,0,0,0,0,0,0,0,0,0,0,0,0,0,0,0,0,0,0,0,0,0,0,0,0,0,0,0,0,0,0,0,0.5768,0.5766,0,0.5598,0.5596,0.5595,0.5449,0.5448,0.5446,0.5444,0.5267,0.5264,0.5261,0,0,0,0,0,0,0,0,0,0,0,0,0,0.5963,0.596,0.5768,0.5766,0.5764,0.5599,0.5596,0.5594,0.5449,0.5448,0.5446,0.5444,0.5268,0.5265,0.5261,0,0,0,0,0,0,0,0,0,0,0,0,0,0.5844,0.5959,0.5769,0.5672,0.5662,0.5599,0.5596,0.5593,0.545,0.5447,0.5445,0.5443,0.527,0.5265,0.526,0.5279,0,0,0.5245,0.5243,0,0,0,0,0,0,0,0,0.5851,0.5837,0.5688,0.5678,0.5667,0.5543,0.56,0.5488,0.545,0.553,0.5444,0.5442,0.5361,0.5348,0.5321,0.527,0.5263,0.5245,0.5242,0.524,0.5239,0,0,0,0,0,0,0,0.586,0.5844,0.5701,0.5686,0.5673,0.5636,0.5616,0.5578,0.5461,0.5523,0.5512,0.5494,0.5354,0.5327,0.5316,0.526,0.5245,0.5241,0.5238,0.5236,0.5215,0.5217,0,0,0,0,0,0,0.5883,0.5852,0.5706,0.5696,0.5755,0.5634,0.5612,0.5585,0.5461,0.544,0.5496,0.5488,0.5336,0.5322,0.531,0.5322,0.524,0.5236,0.5233,0.5212,0.5215,0.5218,0,0,0,0,0,0,0.5888,0.5872,0.5713,0.5771,0.5748,0.5634,0.5604,0.5583,0.5555,0.5441,0.5419,0.549,0.5333,0.5316,0.5287,0.5314,0.5233,0.5229,0.5209,0.5213,0.5216,0.5348,0,0,0,0,0,0,0.5894,0.5874,0.5881,0.5772,0.5745,0.5695,0.5605,0.5581,0.5547,0.5535,0.5429,0.5409,0.533,0.5295,0.5283,0.5306,0.5225,0.5207,0.5211,0.5215,0.5341,0.5356,0.5369,0,0,0,0,0,0.5902,0.5924,0.5882,0.5865,0.5751,0.5697,0.5682,0.5592,0.555,0.5555,0.5482,0.5412,0.5314,0.5294,0.5278,0.53,0.5204,0.521,0.5215,0.5335,0.5353,0.5368,0,0,0,0,0,0,0.6038,0.5908,0.586,0.5848,0.5785,0.5673,0.5676,0.5614,0.556,0.555,0.544,0.5417,0.54,0.5347,0.5327,0.5311,0.525,0.5252,0.5346,0.5363,0.5376,0.5389,0.5221,0,0,0,0,0,0.6067,0.6036,0.5923,0.5924,0.5894,0.5792,0.5764,0.5701,0.563,0.5602,0.5527,0.546,0.5413,0.5385,0.5336,0.5333,0.5307,0.5341,0.5355,0.5366,0.5369,0.5363,0.5376,0.5235,0.5235,0.5235,0,0,0.6126,0.6051,0.6038,0.5949,0.5892,0.5861,0.577,0.574,0.5715,0.5597,0.5565,0.5508,0.5426,0.541,0.5399,0.5365,0.5403,0.5373,0.5383,0.5379,0.5369,0.5383,0.5395,0.5238,0.5238,0.5237,0,0,0.6217,0.6158,0.6152,0.6097,0.6013,0.5945,0.5944,0.5841,0.5798,0.5765,0.5676,0.5644,0.5567,0.5512,0.5474,0.5545,0.5478,0.5532,0.5603,0.5598,0.5609,0.5619,0.5643,0.5653,0.5536,0.5536,0.5536,0,0.6301,0.625,0.6156,0.6131,0.6095,0.5988,0.598,0.5931,0.5836,0.5812,0.5776,0.5677,0.5614,0.5583,0.5601,0.5574,0.5568,0.5543,0.5616,0.5624,0.5631,0.5653,0.5663,0.5543,0.5542,0.5541,0.5541,0,0.6356,0.6323,0.6328,0.6239,0.6203,0.6187,0.6089,0.6063,0.6003,0.5938,0.5905,0.5827,0.576,0.5748,0.5688,0.5708,0.569,0.5637,0.5572,0.5653,0.5672,0.568,0.5553,0.555,0.5548,0.5547,0,0,0.6527,0.6388,0.6391,0.6349,0.6249,0.622,0.6199,0.6135,0.6115,0.6053,0.6031,0.5969,0.5918,0.5876,0.5809,0.5805,0.5865,0.5751,0.5747,0.5774,0.5881,0.5921,0.5933,0.5821,0.5822,0.5823,0.5888,0,0.6601,0.6558,0.6473,0.6456,0.6423,0.6322,0.6304,0.624,0.6179,0.6141,0.6073,0.603,0.5968,0.5941,0.5933,0.586,0.5885,0.5854,0.5798,0.5798,0.5821,0.5942,0.5984,0.6049,0.5894,0.5896,0.5896,0,0.668,0.6626,0.6607,0.6509,0.6492,0.6477,0.6411,0.6376,0.6302,0.6257,0.621,0.6138,0.6108,0.6051,0.6009,0.599,0.5962,0.5923,0.5923,0.5913,0.5851,0.5935,0.6067,0.6077,0.5907,0.5906,0.5905,0,0.6806,0.6727,0.6705,0.6673,0.6558,0.655,0.6502,0.6424,0.6391,0.6333,0.631,0.625,0.6217,0.6171,0.6083,0.605,0.605,0.5986,0.6011,0.6014,0.6015,0.6016,0.6144,0.6,0.6,0.6,0.5999,0,0.6896,0.6888,0.676,0.6746,0.6734,0.6636,0.6626,0.6568,0.65,0.6473,0.6382,0.6358,0.6244,0.6206,0.6138,0.6113,0.6098,0.6061,0.6042,0.6068,0.6073,0.6047,0.604,0.6002,0.6001,0.6001,0.6001,0,0.7033,0.6947,0.6916,0.6811,0.6784,0.678,0.6689,0.6671,0.6605,0.6572,0.6558,0.6454,0.6405,0.6314,0.6239,0.6192,0.6182,0.615,0.6208,0.6196,0.6226,0.6224,0.6341,0.6351,0.6204,0.6205,0.6206,0,0.7095,0.7087,0.6981,0.6957,0.6913,0.6875,0.6841,0.6744,0.6712,0.6626,0.6619,0.6563,0.6513,0.6439,0.6356,0.6298,0.6264,0.6309,0.6255,0.6281,0.6263,0.6264,0.6262,0.6321,0.6323,0.6325,0.6327,0,0.7215,0.7173,0.7128,0.7069,0.7032,0.698,0.6923,0.6908,0.6798,0.6767,0.6716,0.6678,0.6602,0.6547,0.6477,0.6425,0.6357,0.6345,0.6347,0.6373,0.6406,0.6387,0.624,0.6342,0.6341,0.6339,0.6339,0.6338,0.7315,0.7303,0.7227,0.718,0.7127,0.7077,0.7055,0.6987,0.6944,0.6875,0.6821,0.6775,0.6699,0.6599,0.6551,0.6513,0.6481,0.6485,0.6485,0.6488,0.6498,0.6414,0.65,0.6499,0.6499,0.6498,0.6498,0,0.7428,0.7375,0.7333,0.7258,0.7221,0.7162,0.7096,0.7069,0.703,0.6966,0.6919,0.6861,0.6808,0.6722,0.6661,0.6647,0.6614,0.6634,0.6633,0.6622,0.6531,0.6534,0.6661,0.6661,0.6661,0.6661,0.6661,0.6661,0.7483,0.7459,0.7409,0.7358,0.7303,0.7258,0.7226,0.7178,0.7127,0.7067,0.7022,0.6967,0.6894,0.6827,0.6775,0.6751,0.6732,0.6762,0.6728,0.6644,0.6629,0.6614,0.6616,0.6759,0.6759,0.6822,0.6823,0.6823]},{"header":{"parameterUnit":"m.s-1","parameterCategory":1,"la1":30.2991,"la2":30.254,"lo1":-89.0895,"lo2":-89.0444,"dy":0.0017,"dx":0.0017,"nx":28,"ny":28,"refTime":"2023-09-01T03:00:00:Z","depth":0,"parameterNumber":3,"parameterNumberName":"V-component_of_WINDS"},"data":[0,0,0,0,0,0,0,0,0,0,0,0,0,0,0,0,0,0,0,0,0,0,0,0,0,0,0,0,0,0,0,0,0,0,0,0,0,0,0,0,0,0,0,0,0,0,0,0,0,0,0,0,0,0,0,0,0,0,0.9836,0.9838,0,1.0026,1.0028,1.003,1.0026,1.0024,1.0021,1.0019,1.0216,1.0224,1.0231,0,0,0,0,0,0,0,0,0,0,0,0,0,0.9472,0.9479,0.9836,0.9838,0.984,1.0025,1.0028,1.003,1.0027,1.0024,1.0021,1.0018,1.0214,1.0223,1.0232,0,0,0,0,0,0,0,0,0,0,0,0,0,0.9643,0.9481,0.9835,0.9861,0.9865,1.0025,1.0028,1.0031,1.0028,1.0024,1.002,1.0016,1.0211,1.0222,1.0233,1.0381,0,0,1.0268,1.0273,0,0,0,0,0,0,0,0,0.9633,0.9656,0.9855,0.9859,0.9864,0.9998,0.9972,1.0149,1.0028,0.9966,1.0019,1.0014,1.0147,1.0164,1.0208,1.039,1.0399,1.0269,1.0276,1.0281,1.0285,0,0,0,0,0,0,0,0.9621,0.9648,0.9911,0.9858,0.9863,0.9863,0.9883,1.0005,1.0076,0.9971,0.9971,0.9994,1.0149,1.0197,1.0212,1.0402,1.0269,1.0279,1.0286,1.0291,1.0714,1.0718,0,0,0,0,0,0,0.9604,0.9638,0.9905,0.9917,0.9737,0.9873,0.9895,0.9959,1.0075,1.0088,0.9997,0.9993,1.0179,1.0199,1.0219,1.0399,1.0281,1.0292,1.0299,1.0709,1.0715,1.0719,0,0,0,0,0,0,0.9596,0.9627,0.9897,0.9777,0.9812,0.9883,0.9955,0.9965,1.0013,1.0094,1.0107,1.0032,1.0177,1.0203,1.034,1.0406,1.0297,1.0308,1.0704,1.0711,1.0717,1.076,0,0,0,0,0,0,0.9585,0.9625,0.9681,0.9779,0.9818,1.0015,0.9959,0.9971,1.0032,1.0029,1.0131,1.0144,1.0176,1.0323,1.0352,1.042,1.0317,1.0699,1.0707,1.0715,1.0753,1.0767,1.0779,0,0,0,0,0,0.9572,0.9687,0.9684,0.9716,0.989,1.0018,1.0041,1.0075,1.0037,1.0095,1.0147,1.0141,1.0394,1.0337,1.0369,1.0442,1.0695,1.0705,1.0714,1.0747,1.0764,1.0779,0,0,0,0,0,0,0.9597,0.97,0.9698,0.9848,0.9924,1.0018,1.0091,1.0092,1.0182,1.0175,1.0213,1.0236,1.0373,1.0421,1.0356,1.059,1.054,1.0556,1.0554,1.0571,1.0584,1.0569,1.0326,0,0,0,0,0,0.9619,0.9714,0.98,0.9923,0.9961,1.002,1.0077,1.0096,1.0177,1.021,1.0272,1.0352,1.0449,1.0513,1.0607,1.076,1.0782,1.0825,1.0838,1.0849,1.0863,1.0946,1.0966,1.0751,1.0751,1.0751,0,0,0.9668,0.9736,0.9794,0.993,0.9991,1.0089,1.0047,1.0153,1.0225,1.0226,1.0359,1.0407,1.0499,1.0644,1.0711,1.0688,1.0927,1.0861,1.0869,1.0877,1.0958,1.0978,1.0996,1.0758,1.0757,1.0756,0,0,0.9805,0.9866,0.9975,1.0037,1.013,1.0167,1.0193,1.0287,1.0318,1.0452,1.0454,1.0541,1.0709,1.0774,1.0828,1.0988,1.0985,1.1018,1.1086,1.1167,1.1184,1.1199,1.1255,1.1275,1.1031,1.1031,1.1032,0,0.9853,1.0,1.0031,1.0137,1.0196,1.0199,1.031,1.0369,1.0488,1.053,1.0502,1.0711,1.0773,1.0933,1.0971,1.1016,1.1047,1.1006,1.1179,1.1194,1.1209,1.1263,1.1284,1.1035,1.1034,1.1034,1.1034,0,1.0054,1.0155,1.0232,1.0346,1.0414,1.0522,1.0569,1.0635,1.0647,1.0688,1.0823,1.0898,1.1006,1.1046,1.106,1.1207,1.119,1.117,1.112,1.1232,1.1283,1.1304,1.1039,1.1038,1.1037,1.1036,0,0,1.0214,1.0341,1.0369,1.042,1.0522,1.0601,1.0708,1.0813,1.0868,1.095,1.1041,1.1181,1.1163,1.1225,1.1246,1.1317,1.1438,1.1289,1.1291,1.1313,1.1604,1.1618,1.1641,1.1436,1.144,1.1444,1.1596,0,1.0361,1.0551,1.0581,1.0748,1.0841,1.0845,1.0938,1.1011,1.1051,1.1137,1.1182,1.1281,1.125,1.1287,1.1357,1.1408,1.1496,1.1398,1.1521,1.1525,1.1498,1.1668,1.1684,1.1824,1.1616,1.162,1.1622,0,1.0559,1.0644,1.082,1.0907,1.0947,1.1031,1.1128,1.121,1.1292,1.1317,1.1385,1.1397,1.1509,1.1454,1.1608,1.1539,1.1592,1.1624,1.1631,1.1644,1.158,1.1686,1.187,1.1891,1.1654,1.1652,1.165,0,1.0657,1.0816,1.0941,1.0984,1.109,1.1148,1.1194,1.1273,1.1333,1.1419,1.1458,1.1556,1.161,1.1686,1.1724,1.168,1.1875,1.1823,1.1899,1.1898,1.194,1.1937,1.2135,1.1974,1.1974,1.1973,1.1973,0,1.0819,1.0926,1.0986,1.1063,1.1182,1.1216,1.1334,1.1379,1.1449,1.1535,1.1544,1.1625,1.1671,1.1758,1.1789,1.1911,1.1936,1.1958,1.1965,1.1958,1.1955,1.1993,1.1984,1.1979,1.1978,1.1977,1.1976,0,1.0949,1.0993,1.1129,1.1217,1.1242,1.1326,1.1401,1.1476,1.1515,1.1624,1.1651,1.1713,1.1816,1.1862,1.199,1.201,1.215,1.215,1.2121,1.2124,1.2196,1.2188,1.2426,1.2458,1.2276,1.2278,1.2279,0,1.1049,1.1131,1.1227,1.1284,1.1332,1.1425,1.1486,1.1522,1.1585,1.1684,1.1747,1.185,1.1934,1.2099,1.2156,1.2253,1.2255,1.2332,1.227,1.2259,1.2256,1.225,1.2258,1.2343,1.2345,1.2346,1.2348,0,1.1222,1.1239,1.1326,1.1421,1.1493,1.1569,1.1644,1.1691,1.1739,1.181,1.1914,1.1979,1.2108,1.221,1.2311,1.236,1.2362,1.2366,1.2389,1.2381,1.2361,1.2372,1.2152,1.2361,1.2359,1.2358,1.2358,1.2357,1.134,1.1412,1.149,1.1586,1.1646,1.1715,1.1789,1.1837,1.1924,1.2031,1.2047,1.2159,1.2238,1.2373,1.2425,1.2513,1.2494,1.2527,1.2536,1.2543,1.2547,1.2347,1.2532,1.2531,1.2531,1.2531,1.2531,0,1.1513,1.1562,1.165,1.1754,1.1829,1.1823,1.1905,1.1969,1.2066,1.2139,1.2221,1.234,1.2439,1.2503,1.2602,1.266,1.2664,1.2685,1.2681,1.2692,1.2558,1.2528,1.268,1.268,1.268,1.268,1.268,1.268,1.1611,1.1733,1.1759,1.191,1.1959,1.2067,1.2115,1.2178,1.2236,1.2369,1.245,1.249,1.256,1.2664,1.2754,1.277,1.2806,1.2828,1.2844,1.2717,1.2702,1.2687,1.2659,1.2836,1.2836,1.297,1.2971,1.2972]}]]